SCP
0 0 0 0 0 0 0 0 0 0 0 0 0 0 0 0 0 0 0 -0 -1 -1 -1 -1 -1 -2 -2 -0 -0 -0 -1 -1 -0 -0 -0 -0 -0 -0 -0 -0 -0 -0 -0 -0 -0 -0 -0 -0 0
0 0 0 0 0 0 0 0 0 0 0 0 0 0 0 0 0 0 0 0 -1 -2 -1 -0 -1 -1 -1 -1 -0 -0 -0 -0 -0 -0 -0 -0 -0 -0 -0 -0 -0 -0 -0 -0 -0 -0 -0 -0 0
0 0 0 0 0 0 0 0 0 0 0 0 0 0 0 0 0 0 1 0 0 -1 -1 -0 -1 -1 -1 -1 -0 -0 -0 -0 -1 -0 -0 -0 -0 -0 -0 -0 -0 -0 -0 -0 -0 -0 -0 0 0
0 0 0 0 0 0 0 0 0 0 0 0 0 0 0 0 -0 0 1 0 0 0 0 -0 -1 -1 -1 -0 -0 -0 -0 -0 -1 -0 -0 -0 -0 -0 -0 -0 -0 -0 -0 -0 -0 0 -0 0 0
0 0 0 0 0 0 0 0 -0 -0 0 0 0 0 0 0 1 1 1 1 1 0 0 -0 -1 -0 -0 -0 -0 -0 -0 -0 -0 -0 -0 -0 -0 -0 -0 -0 -0 -0 -0 -0 -0 0 0 0 0
0 0 0 0 0 0 0 0 0 0 -0 0 0 0 0 -0 1 2 2 1 1 1 1 1 0 0 0 -0 0 -0 -0 -0 0 -0 -0 -0 -0 -0 -0 -0 0 0 0 -0 -0 0 0 0 0
0 0 0 0 0 0 0 0 0 0 -0 -0 0 0 0 -0 0 2 2 2 1 2 2 1 1 1 0 0 0 0 0 0 0 0 -0 -0 0 0 0 0 0 0 0 0 -0 0 -0 0 0
0 0 0 0 0 0 -0 0 0 0 -0 -0 0 0 0 0 -0 1 3 3 3 3 2 1 1 1 1 1 0 0 0 0 0 0 0 0 0 0 0 0 0 0 -0 0 -0 -0 0 0 0
0 0 0 0 0 0 0 0 -0 -0 0 -0 0 0 0 -0 0 0 0 2 3 3 2 1 1 1 1 0 0 0 0 0 -0 0 0 0 0 0 0 0 0 0 0 0 -0 0 0 0 0
0 0 0 0 0 0 0 0 0 0 0 -0 0 0 0 -0 0 0 0 0 0 2 1 2 1 1 1 0 0 0 0 0 0 0 0 0 0 0 0 0 0 -0 -0 0 0 0 0 0 0
0 0 0 0 0 0 0 0 0 0 0 -0 -0 -0 0 -0 -0 0 0 0 0 0 1 2 1 1 1 1 0 0 1 0 0 0 0 0 0 0 0 0 0 -0 0 0 0 0 0 0 0
0 0 0 0 0 0 0 0 0 0 0 -0 -0 -0 -0 -0 -0 -0 -0 -0 0 0 0 1 2 1 1 1 0 0 0 0 0 0 0 0 0 0 0 0 0 0 0 0 0 0 0 0 0
0 0 0 0 0 0 0 0 0 0 0 -0 -0 -0 -0 -0 -0 -0 -0 -0 0 0 0 1 1 1 1 1 0 0 0 0 0 0 0 0 0 0 0 0 0 0 0 0 0 0 0 0 0
0 0 -0 -0 -0 -0 0 0 0 -0 -0 0 0 -0 -0 -0 -0 -0 -0 0 0 -0 0 1 1 1 1 1 1 0 0 0 0 0 0 0 0 0 0 0 0 0 0 0 0 0 0 0 0
0 0 -0 -0 -0 0 0 0 0 -0 -0 0 0 0 0 0 0 -0 -0 -0 0 -0 1 1 2 1 1 1 1 0 0 0 0 0 0 0 0 0 0 0 0 0 0 0 0 0 0 0 0
0 0 0 0 0 0 0 0 0 0 0 0 0 0 0 0 0 0 0 -0 -0 -0 1 1 2 1 1 1 1 0 0 0 0 0 0 0 0 0 0 0 0 0 0 0 0 0 0 0 0
0 0 0 0 0 0 0 0 -0 0 0 0 0 0 0 0 0 0 0 0 0 0 1 1 2 1 1 0 0 0 0 0 0 0 0 0 0 0 0 0 0 0 0 0 0 0 0 0 0
0 0 0 0 0 0 0 0 -0 0 0 0 0 0 0 0 0 0 -0 0 -0 0 1 2 1 1 0 0 0 0 0 0 0 0 0 0 0 0 0 0 0 0 0 0 0 0 0 0 0
0 0 0 0 0 0 0 0 -0 0 0 0 0 0 0 0 0 -0 -0 -0 1 1 1 2 1 0 0 0 0 0 0 0 0 0 0 0 0 0 0 0 0 0 0 0 0 0 0 0 0
0 0 0 0 0 0 0 -0 -0 -0 0 0 0 -0 -0 0 0 0 -0 -0 0 1 1 1 1 1 1 0 0 0 0 0 0 0 0 0 0 0 0 0 0 0 0 0 0 0 0 0 0
0 0 0 0 -0 -0 0 -0 -0 -0 0 0 0 0 -0 -0 -0 0 0 0 1 1 1 1 2 1 0 1 0 0 0 0 0 0 0 0 0 0 0 0 0 0 0 0 0 0 0 0 0
0 0 0 0 -0 0 0 -0 0 0 0 0 0 0 -0 0 0 0 0 0 1 1 2 1 2 2 1 1 1 1 0 1 1 1 1 1 1 0 0 0 0 0 0 0 0 0 0 0 0
0 0 0 0 0 0 0 0 0 0 0 0 0 0 0 0 0 0 0 0 1 1 2 2 1 3 2 0 1 2 0 1 1 2 1 2 0 0 0 0 0 0 0 0 0 0 0 0 0
0 0 0 0 0 0 0 0 -0 0 0 0 0 0 0 0 0 0 0 0 1 2 1 3 2 2 2 0 1 2 1 2 2 1 1 0 0 0 0 0 0 0 0 0 0 0 0 0 0
0 0 -0 -0 0 0 0 0 0 0 0 0 0 0 0 0 0 0 0 0 0 2 3 3 2 2 2 0 1 2 2 1 2 1 1 0 0 0 0 0 0 0 0 0 0 0 0 0 0
-0 0 0 0 0 0 0 0 0 0 0 0 0 0 0 0 0 0 0 0 0 2 4 3 3 1 1 1 2 2 1 2 2 1 0 0 0 0 0 0 0 0 0 0 0 0 0 0 0
0 0 0 0 0 -0 -0 0 0 0 0 0 0 0 0 0 0 0 0 0 0 1 2 3 2 2 1 2 2 2 2 1 1 0 0 0 0 0 0 0 0 0 0 0 0 0 0 0 0
0 0 0 0 -0 -0 0 0 0 0 0 0 0 0 0 0 0 0 0 0 0 0 2 3 2 2 2 2 3 4 2 1 0 0 0 0 0 0 0 0 0 0 0 0 0 0 0 0 0
0 0 0 0 0 0 -0 0 0 0 0 0 0 0 0 0 0 0 0 0 0 0 2 2 4 3 1 2 2 3 1 0 0 0 0 0 0 0 0 0 0 0 0 0 0 0 0 0 0
0 -0 0 0 0 0 0 0 0 0 0 0 -0 0 0 0 0 0 0 0 0 0 2 3 3 4 2 2 2 2 0 0 0 0 0 0 0 0 0 0 0 0 0 0 0 0 0 0 0
Wind_Speed_500mb
3 5 9 9 6 9 7 15 6 4 11 8 30 22 16 32 14 13 12 46 58 76 89 81 74 69 66 56 49 44 46 49 51 53 53 49 45 42 45 47 44 39 35 32 29 28 25 24 23
1 10 7 7 8 4 11 10 19 9 17 48 45 21 25 19 45 10 37 57 62 77 91 85 79 72 68 61 51 45 46 49 51 53 53 51 48 47 47 48 42 36 33 31 27 25 23 22 21
2 14 6 8 8 13 11 10 8 8 39 38 16 49 23 10 26 13 40 57 68 83 89 86 82 74 68 63 54 46 47 49 52 55 55 52 51 51 50 48 42 35 32 28 24 21 20 19 19
4 8 5 7 17 12 10 8 11 16 22 37 39 10 43 20 13 24 44 58 64 87 87 84 81 76 69 63 57 49 47 50 52 56 56 53 51 51 51 47 42 38 32 26 21 20 19 17 17
4 4 3 5 11 10 10 29 11 10 14 30 37 23 49 44 19 22 48 60 69 91 89 88 83 76 69 65 58 52 49 48 52 54 54 52 51 51 50 45 40 36 29 22 19 17 17 15 15
6 5 4 9 10 9 11 18 25 9 15 27 42 38 22 28 21 23 58 63 90 90 90 85 79 76 71 64 60 54 50 49 50 52 52 51 49 49 48 44 38 34 28 22 18 15 14 14 14
10 7 7 6 7 8 7 25 14 15 16 16 36 13 29 37 28 29 60 65 86 88 85 82 78 74 70 66 61 56 51 49 48 48 49 50 49 47 45 41 37 32 27 22 17 13 13 14 17
3 8 4 4 2 13 7 42 31 17 12 22 22 11 22 72 17 19 49 63 75 83 83 81 78 77 73 68 63 57 52 49 47 46 47 49 48 44 41 36 32 28 24 20 15 13 14 17 19
2 7 0 6 5 11 41 14 34 32 28 29 10 21 33 20 19 20 21 35 70 82 82 81 80 78 76 72 66 59 54 50 48 46 46 48 46 41 37 34 30 25 21 17 14 14 17 20 19
7 6 12 13 11 15 28 25 50 17 32 6 26 22 29 33 23 10 12 14 40 83 89 84 81 79 76 74 70 65 61 57 52 49 48 46 42 38 36 32 26 21 19 17 16 16 20 23 17
3 7 10 21 38 39 23 24 56 14 11 19 19 24 28 27 31 33 32 38 25 41 68 89 83 80 79 77 74 71 65 58 51 48 47 45 42 39 36 31 26 21 17 15 15 16 19 18 13
6 17 9 23 45 33 11 15 12 24 21 29 30 27 31 30 26 27 43 51 36 28 68 71 84 79 79 78 75 70 68 63 58 53 47 47 43 39 34 28 22 18 16 16 17 17 20 16 13
8 4 24 38 42 44 39 24 20 31 42 29 25 40 37 29 26 26 34 34 50 42 54 67 77 79 79 76 73 70 66 60 52 48 47 47 44 39 32 26 24 22 20 20 19 17 18 11 8
16 36 36 30 35 33 14 19 17 68 29 44 54 63 53 36 23 21 11 20 22 63 43 81 82 83 78 76 73 68 64 58 52 48 48 47 43 36 30 26 27 26 20 20 18 16 16 10 7
28 20 22 8 14 10 14 19 26 51 56 58 61 66 64 52 27 24 24 25 27 40 56 71 81 83 81 76 70 65 60 57 53 50 48 47 42 33 36 30 27 27 21 16 13 14 13 12 12
12 6 11 12 10 15 3 22 20 50 43 53 62 66 65 54 40 24 16 14 20 16 59 62 88 91 83 79 72 65 60 54 50 47 46 47 44 36 33 30 23 21 21 18 14 13 9 13 15
9 11 12 15 2 11 2 36 8 53 53 42 56 59 57 50 50 37 29 18 16 13 35 67 92 98 88 82 72 64 58 51 46 44 47 48 43 37 32 29 23 24 22 17 16 12 10 14 19
22 15 15 26 34 36 37 46 34 33 46 44 54 58 54 53 48 34 21 16 15 17 14 41 79 92 84 80 74 64 58 50 46 46 49 51 43 36 33 29 32 26 25 22 16 11 18 18 20
22 28 35 31 32 33 44 50 46 35 39 35 52 57 56 53 41 30 13 6 24 28 22 41 74 81 84 77 71 69 64 54 48 44 48 52 44 37 36 38 32 29 24 17 16 22 16 17 19
25 32 35 28 29 27 35 52 38 29 20 45 52 54 61 63 54 33 23 15 21 35 38 46 65 79 85 79 72 68 66 57 47 47 48 51 51 45 46 42 38 30 23 23 25 24 22 21 18
21 22 27 24 16 18 26 56 37 28 29 40 52 64 71 71 65 57 43 32 27 37 47 56 61 76 88 81 69 65 62 54 48 46 44 48 52 50 43 44 36 33 27 29 30 26 24 22 20
28 9 12 20 14 25 18 35 55 23 41 32 42 55 68 73 71 67 54 40 37 31 51 64 71 69 90 86 85 85 82 77 52 44 53 49 46 51 41 38 31 33 29 28 25 27 26 21 17
11 8 3 13 23 9 21 12 55 16 25 24 27 57 74 74 65 50 42 37 35 42 40 63 78 82 89 96 95 89 82 85 69 70 65 59 54 43 46 40 33 33 31 29 26 22 20 14 14
6 7 32 9 3 14 20 29 39 25 27 14 29 48 61 68 70 68 62 51 39 49 44 51 70 78 98 96 103 87 86 81 81 81 80 65 61 51 49 39 30 32 31 27 21 15 16 18 16
14 13 9 9 5 13 12 18 33 13 23 20 19 37 56 63 66 62 54 48 50 56 52 44 55 81 89 101 103 91 87 80 83 78 76 66 63 57 54 39 32 30 28 21 19 22 22 16 12
24 14 8 12 7 9 11 17 11 23 29 41 39 37 51 59 60 51 56 52 50 61 62 51 45 78 91 105 112 101 89 88 79 79 72 70 72 64 52 41 32 29 26 29 28 22 17 13 11
7 8 8 11 19 16 10 13 18 26 24 16 21 33 37 48 52 39 47 61 57 60 68 65 62 70 87 103 110 110 92 84 86 80 78 76 76 68 55 38 33 31 37 29 24 20 14 13 10
23 8 2 6 8 11 8 8 16 18 9 8 12 16 28 28 29 40 35 43 60 68 66 77 75 64 90 96 104 108 94 91 83 77 79 84 74 64 47 35 38 45 35 28 26 21 16 11 12
3 5 10 7 8 7 10 8 13 20 21 11 13 21 28 35 39 31 28 26 39 57 75 74 89 74 84 97 100 95 90 92 79 78 75 75 68 45 39 37 52 43 34 32 28 22 18 16 18
7 10 10 7 6 9 9 27 22 12 6 5 10 19 25 33 43 45 38 29 23 48 62 81 95 74 80 93 95 89 88 84 79 75 82 71 41 36 41 56 52 40 37 34 26 24 24 20 17
Wind_Direction_500mb
306 209 156 146 66 64 261 260 274 40 331 3 336 278 225 221 187 212 239 182 187 182 178 178 181 180 177 176 174 169 165 167 170 170 170 168 167 165 163 160 158 154 154 152 151 147 145 140 139
51 166 150 118 103 99 262 245 249 107 328 326 325 310 293 235 211 252 164 170 182 180 178 176 179 180 178 176 175 171 165 165 166 169 169 169 168 167 166 162 160 157 155 153 152 149 145 144 146
97 159 151 121 138 202 229 218 285 353 331 327 307 310 289 268 220 218 182 171 181 181 179 176 177 179 179 176 175 173 168 166 166 167 167 169 168 168 168 165 161 159 158 158 160 158 153 152 149
149 148 93 118 221 265 231 283 1 2 344 343 331 326 321 311 293 222 190 180 178 181 178 177 177 178 179 178 175 174 172 168 167 167 168 169 170 170 169 168 164 159 157 157 160 163 161 156 149
151 118 90 248 252 272 281 307 3 330 319 338 355 313 310 298 254 210 191 182 180 180 179 179 178 178 180 179 177 176 174 171 170 169 170 171 171 171 170 171 170 168 168 171 170 162 156 150 147
128 102 90 243 263 302 294 314 337 353 17 359 348 323 299 322 245 218 191 184 183 182 179 178 179 179 179 181 178 177 176 173 174 171 172 172 173 172 173 175 176 177 179 178 179 167 150 146 148
111 90 215 240 275 299 272 343 338 331 1 358 341 330 314 343 305 221 190 189 186 183 180 180 179 181 180 181 180 179 177 175 176 175 173 172 172 174 175 179 182 184 180 183 185 166 150 153 154
134 93 332 292 323 283 269 328 309 318 327 339 352 346 328 335 277 193 191 189 189 187 184 183 182 182 181 181 181 180 179 178 178 178 176 173 173 175 175 178 181 184 185 188 189 172 160 162 158
182 65 330 266 320 261 300 302 301 300 288 319 325 323 340 348 145 169 179 208 195 191 190 188 186 185 183 182 180 181 181 181 180 180 181 178 177 175 174 173 179 184 187 188 192 178 172 160 150
106 116 230 213 226 251 271 275 289 292 300 255 312 327 340 342 309 305 331 274 220 198 193 192 191 189 186 184 182 181 182 183 184 184 184 184 181 179 175 175 180 189 192 194 195 183 175 162 145
42 203 235 273 280 297 272 282 284 265 273 282 300 326 340 344 335 302 286 285 263 224 208 194 195 193 190 188 185 183 185 185 186 187 188 187 185 184 180 181 187 193 197 196 189 183 167 171 173
301 264 281 311 314 320 275 299 289 259 260 296 293 302 307 309 317 320 302 277 254 243 223 207 197 196 195 191 190 188 187 187 189 189 189 191 189 189 187 186 191 196 189 182 172 165 164 167 178
204 273 305 305 307 304 296 273 263 276 286 300 277 295 298 305 307 308 330 277 232 287 224 212 202 199 199 196 193 193 192 193 193 193 192 194 194 193 190 190 190 189 182 167 167 164 170 176 181
302 302 297 305 290 281 267 277 301 281 291 291 290 293 296 293 288 288 264 318 258 272 249 217 207 204 203 201 199 197 196 196 196 197 198 196 195 195 188 186 186 178 172 175 176 187 202 217 232
299 307 315 258 266 276 270 304 254 293 301 300 292 291 294 293 285 253 264 255 260 269 232 215 214 208 204 203 201 200 197 198 199 200 200 199 190 184 179 169 161 162 169 189 209 225 234 217 267
338 354 342 287 309 277 163 272 300 299 303 295 295 293 293 290 288 271 261 247 261 218 198 213 228 215 207 203 201 199 199 199 203 203 201 199 193 189 183 186 180 187 200 213 221 209 241 231 225
347 265 281 302 162 278 204 289 259 304 304 296 302 299 294 292 281 281 284 239 231 229 203 216 223 215 207 203 199 200 199 200 202 204 203 199 197 196 196 199 199 208 212 215 205 187 227 236 227
272 265 257 281 295 304 296 278 290 282 289 286 287 294 293 291 281 276 281 273 226 214 265 229 217 212 206 203 195 196 199 199 200 202 202 197 197 200 207 209 214 219 229 226 213 210 207 225 226
263 267 266 274 283 285 286 281 289 287 270 277 283 290 291 294 294 278 244 222 223 217 223 223 216 207 203 199 194 192 194 194 194 197 200 198 200 202 215 220 225 233 234 223 237 235 224 234 261
248 260 268 271 260 272 281 277 282 273 248 262 270 277 284 286 287 282 256 209 219 222 209 209 215 206 201 200 195 191 190 192 193 194 199 202 206 211 220 226 227 224 221 228 240 247 251 255 258
246 254 272 277 290 271 299 286 280 267 267 261 263 271 272 271 272 273 275 249 237 221 217 210 214 209 204 198 193 188 188 186 183 191 194 199 205 217 223 229 230 219 224 235 238 250 260 263 264
270 270 280 308 307 283 176 277 276 260 261 253 263 263 265 266 265 268 262 252 240 232 224 219 216 215 204 200 194 187 184 189 188 207 198 199 193 210 221 226 227 220 224 231 243 255 262 267 254
252 320 269 285 273 289 235 253 274 210 251 255 246 250 261 265 260 252 238 232 247 257 226 225 217 214 207 205 206 202 207 209 194 191 200 198 205 202 216 220 225 225 229 238 247 247 249 237 189
237 356 313 300 154 245 239 218 273 241 251 242 253 256 261 266 266 264 262 248 224 240 226 222 224 221 217 216 212 210 202 200 201 195 197 197 203 194 209 206 219 222 231 241 238 223 185 168 184
36 27 317 326 224 244 321 236 245 270 265 235 249 268 275 276 271 264 258 253 236 214 227 224 229 231 223 214 207 208 207 204 204 204 199 195 199 196 197 207 221 217 211 208 185 169 174 187 188
289 172 202 245 234 265 329 255 249 228 251 250 261 285 282 275 271 269 273 258 238 221 224 221 231 233 228 214 206 208 214 215 213 211 203 202 202 197 200 205 206 199 188 170 169 176 176 185 192
255 171 207 267 273 267 223 285 304 266 256 260 283 299 302 275 263 277 283 266 251 234 218 220 216 231 234 221 215 217 206 210 212 208 210 204 195 193 194 196 194 185 167 168 172 170 175 175 171
207 186 358 186 257 259 254 245 243 296 285 295 291 293 335 327 300 281 288 267 252 243 229 219 216 227 231 222 211 208 208 209 217 216 210 190 185 185 184 185 182 169 169 171 168 168 160 172 156
150 207 212 228 209 252 300 232 221 231 246 235 305 313 338 331 329 306 287 284 243 233 225 218 214 216 224 223 214 206 208 212 217 218 204 182 177 180 182 183 169 168 166 168 167 155 144 151 132
197 238 190 257 262 234 262 268 241 262 200 298 311 339 339 320 323 325 302 276 261 225 224 217 209 210 220 218 212 203 205 203 211 213 188 184 182 204 187 173 168 167 169 165 158 150 146 142 134
Wind_Speed_850mb
3 5 9 9 6 9 7 15 6 4 11 8 30 22 16 32 14 13 12 46 58 76 89 81 74 69 66 56 49 44 46 49 51 53 53 49 45 42 45 47 44 39 35 32 29 28 25 24 23
1 10 7 7 8 4 11 10 19 9 17 48 45 21 25 19 45 10 37 57 62 77 91 85 79 72 68 61 51 45 46 49 51 53 53 51 48 47 47 48 42 36 33 31 27 25 23 22 21
2 14 6 8 8 13 11 10 8 8 39 38 16 49 23 10 26 13 40 57 68 83 89 86 82 74 68 63 54 46 47 49 52 55 55 52 51 51 50 48 42 35 32 28 24 21 20 19 19
4 8 5 7 17 12 10 8 11 16 22 37 39 10 43 20 13 24 44 58 64 87 87 84 81 76 69 63 57 49 47 50 52 56 56 53 51 51 51 47 42 38 32 26 21 20 19 17 17
4 4 3 5 11 10 10 29 11 10 14 30 37 23 49 44 19 22 48 60 69 91 89 88 83 76 69 65 58 52 49 48 52 54 54 52 51 51 50 45 40 36 29 22 19 17 17 15 15
6 5 4 9 10 9 11 18 25 9 15 27 42 38 22 28 21 23 58 63 90 90 90 85 79 76 71 64 60 54 50 49 50 52 52 51 49 49 48 44 38 34 28 22 18 15 14 14 14
10 7 7 6 7 8 7 25 14 15 16 16 36 13 29 37 28 29 60 65 86 88 85 82 78 74 70 66 61 56 51 49 48 48 49 50 49 47 45 41 37 32 27 22 17 13 13 14 17
3 8 4 4 2 13 7 42 31 17 12 22 22 11 22 72 17 19 49 63 75 83 83 81 78 77 73 68 63 57 52 49 47 46 47 49 48 44 41 36 32 28 24 20 15 13 14 17 19
2 7 0 6 5 11 41 14 34 32 28 29 10 21 33 20 19 20 21 35 70 82 82 81 80 78 76 72 66 59 54 50 48 46 46 48 46 41 37 34 30 25 21 17 14 14 17 20 19
7 6 12 13 11 15 28 25 50 17 32 6 26 22 29 33 23 10 12 14 40 83 89 84 81 79 76 74 70 65 61 57 52 49 48 46 42 38 36 32 26 21 19 17 16 16 20 23 17
3 7 10 21 38 39 23 24 56 14 11 19 19 24 28 27 31 33 32 38 25 41 68 89 83 80 79 77 74 71 65 58 51 48 47 45 42 39 36 31 26 21 17 15 15 16 19 18 13
6 17 9 23 45 33 11 15 12 24 21 29 30 27 31 30 26 27 43 51 36 28 68 71 84 79 79 78 75 70 68 63 58 53 47 47 43 39 34 28 22 18 16 16 17 17 20 16 13
8 4 24 38 42 44 39 24 20 31 42 29 25 40 37 29 26 26 34 34 50 42 54 67 77 79 79 76 73 70 66 60 52 48 47 47 44 39 32 26 24 22 20 20 19 17 18 11 8
16 36 36 30 35 33 14 19 17 68 29 44 54 63 53 36 23 21 11 20 22 63 43 81 82 83 78 76 73 68 64 58 52 48 48 47 43 36 30 26 27 26 20 20 18 16 16 10 7
28 20 22 8 14 10 14 19 26 51 56 58 61 66 64 52 27 24 24 25 27 40 56 71 81 83 81 76 70 65 60 57 53 50 48 47 42 33 36 30 27 27 21 16 13 14 13 12 12
12 6 11 12 10 15 3 22 20 50 43 53 62 66 65 54 40 24 16 14 20 16 59 62 88 91 83 79 72 65 60 54 50 47 46 47 44 36 33 30 23 21 21 18 14 13 9 13 15
9 11 12 15 2 11 2 36 8 53 53 42 56 59 57 50 50 37 29 18 16 13 35 67 92 98 88 82 72 64 58 51 46 44 47 48 43 37 32 29 23 24 22 17 16 12 10 14 19
22 15 15 26 34 36 37 46 34 33 46 44 54 58 54 53 48 34 21 16 15 17 14 41 79 92 84 80 74 64 58 50 46 46 49 51 43 36 33 29 32 26 25 22 16 11 18 18 20
22 28 35 31 32 33 44 50 46 35 39 35 52 57 56 53 41 30 13 6 24 28 22 41 74 81 84 77 71 69 64 54 48 44 48 52 44 37 36 38 32 29 24 17 16 22 16 17 19
25 32 35 28 29 27 35 52 38 29 20 45 52 54 61 63 54 33 23 15 21 35 38 46 65 79 85 79 72 68 66 57 47 47 48 51 51 45 46 42 38 30 23 23 25 24 22 21 18
21 22 27 24 16 18 26 56 37 28 29 40 52 64 71 71 65 57 43 32 27 37 47 56 61 76 88 81 69 65 62 54 48 46 44 48 52 50 43 44 36 33 27 29 30 26 24 22 20
28 9 12 20 14 25 18 35 55 23 41 32 42 55 68 73 71 67 54 40 37 31 51 64 71 69 90 86 85 85 82 77 52 44 53 49 46 51 41 38 31 33 29 28 25 27 26 21 17
11 8 3 13 23 9 21 12 55 16 25 24 27 57 74 74 65 50 42 37 35 42 40 63 78 82 89 96 95 89 82 85 69 70 65 59 54 43 46 40 33 33 31 29 26 22 20 14 14
6 7 32 9 3 14 20 29 39 25 27 14 29 48 61 68 70 68 62 51 39 49 44 51 70 78 98 96 103 87 86 81 81 81 80 65 61 51 49 39 30 32 31 27 21 15 16 18 16
14 13 9 9 5 13 12 18 33 13 23 20 19 37 56 63 66 62 54 48 50 56 52 44 55 81 89 101 103 91 87 80 83 78 76 66 63 57 54 39 32 30 28 21 19 22 22 16 12
24 14 8 12 7 9 11 17 11 23 29 41 39 37 51 59 60 51 56 52 50 61 62 51 45 78 91 105 112 101 89 88 79 79 72 70 72 64 52 41 32 29 26 29 28 22 17 13 11
7 8 8 11 19 16 10 13 18 26 24 16 21 33 37 48 52 39 47 61 57 60 68 65 62 70 87 103 110 110 92 84 86 80 78 76 76 68 55 38 33 31 37 29 24 20 14 13 10
23 8 2 6 8 11 8 8 16 18 9 8 12 16 28 28 29 40 35 43 60 68 66 77 75 64 90 96 104 108 94 91 83 77 79 84 74 64 47 35 38 45 35 28 26 21 16 11 12
3 5 10 7 8 7 10 8 13 20 21 11 13 21 28 35 39 31 28 26 39 57 75 74 89 74 84 97 100 95 90 92 79 78 75 75 68 45 39 37 52 43 34 32 28 22 18 16 18
7 10 10 7 6 9 9 27 22 12 6 5 10 19 25 33 43 45 38 29 23 48 62 81 95 74 80 93 95 89 88 84 79 75 82 71 41 36 41 56 52 40 37 34 26 24 24 20 17
Wind_Direction_850mb
306 209 156 146 66 64 261 260 274 40 331 3 336 278 225 221 187 212 239 182 187 182 178 178 181 180 177 176 174 169 165 167 170 170 170 168 167 165 163 160 158 154 154 152 151 147 145 140 139
51 166 150 118 103 99 262 245 249 107 328 326 325 310 293 235 211 252 164 170 182 180 178 176 179 180 178 176 175 171 165 165 166 169 169 169 168 167 166 162 160 157 155 153 152 149 145 144 146
97 159 151 121 138 202 229 218 285 353 331 327 307 310 289 268 220 218 182 171 181 181 179 176 177 179 179 176 175 173 168 166 166 167 167 169 168 168 168 165 161 159 158 158 160 158 153 152 149
149 148 93 118 221 265 231 283 1 2 344 343 331 326 321 311 293 222 190 180 178 181 178 177 177 178 179 178 175 174 172 168 167 167 168 169 170 170 169 168 164 159 157 157 160 163 161 156 149
151 118 90 248 252 272 281 307 3 330 319 338 355 313 310 298 254 210 191 182 180 180 179 179 178 178 180 179 177 176 174 171 170 169 170 171 171 171 170 171 170 168 168 171 170 162 156 150 147
128 102 90 243 263 302 294 314 337 353 17 359 348 323 299 322 245 218 191 184 183 182 179 178 179 179 179 181 178 177 176 173 174 171 172 172 173 172 173 175 176 177 179 178 179 167 150 146 148
111 90 215 240 275 299 272 343 338 331 1 358 341 330 314 343 305 221 190 189 186 183 180 180 179 181 180 181 180 179 177 175 176 175 173 172 172 174 175 179 182 184 180 183 185 166 150 153 154
134 93 332 292 323 283 269 328 309 318 327 339 352 346 328 335 277 193 191 189 189 187 184 183 182 182 181 181 181 180 179 178 178 178 176 173 173 175 175 178 181 184 185 188 189 172 160 162 158
182 65 330 266 320 261 300 302 301 300 288 319 325 323 340 348 145 169 179 208 195 191 190 188 186 185 183 182 180 181 181 181 180 180 181 178 177 175 174 173 179 184 187 188 192 178 172 160 150
106 116 230 213 226 251 271 275 289 292 300 255 312 327 340 342 309 305 331 274 220 198 193 192 191 189 186 184 182 181 182 183 184 184 184 184 181 179 175 175 180 189 192 194 195 183 175 162 145
42 203 235 273 280 297 272 282 284 265 273 282 300 326 340 344 335 302 286 285 263 224 208 194 195 193 190 188 185 183 185 185 186 187 188 187 185 184 180 181 187 193 197 196 189 183 167 171 173
301 264 281 311 314 320 275 299 289 259 260 296 293 302 307 309 317 320 302 277 254 243 223 207 197 196 195 191 190 188 187 187 189 189 189 191 189 189 187 186 191 196 189 182 172 165 164 167 178
204 273 305 305 307 304 296 273 263 276 286 300 277 295 298 305 307 308 330 277 232 287 224 212 202 199 199 196 193 193 192 193 193 193 192 194 194 193 190 190 190 189 182 167 167 164 170 176 181
302 302 297 305 290 281 267 277 301 281 291 291 290 293 296 293 288 288 264 318 258 272 249 217 207 204 203 201 199 197 196 196 196 197 198 196 195 195 188 186 186 178 172 175 176 187 202 217 232
299 307 315 258 266 276 270 304 254 293 301 300 292 291 294 293 285 253 264 255 260 269 232 215 214 208 204 203 201 200 197 198 199 200 200 199 190 184 179 169 161 162 169 189 209 225 234 217 267
338 354 342 287 309 277 163 272 300 299 303 295 295 293 293 290 288 271 261 247 261 218 198 213 228 215 207 203 201 199 199 199 203 203 201 199 193 189 183 186 180 187 200 213 221 209 241 231 225
347 265 281 302 162 278 204 289 259 304 304 296 302 299 294 292 281 281 284 239 231 229 203 216 223 215 207 203 199 200 199 200 202 204 203 199 197 196 196 199 199 208 212 215 205 187 227 236 227
272 265 257 281 295 304 296 278 290 282 289 286 287 294 293 291 281 276 281 273 226 214 265 229 217 212 206 203 195 196 199 199 200 202 202 197 197 200 207 209 214 219 229 226 213 210 207 225 226
263 267 266 274 283 285 286 281 289 287 270 277 283 290 291 294 294 278 244 222 223 217 223 223 216 207 203 199 194 192 194 194 194 197 200 198 200 202 215 220 225 233 234 223 237 235 224 234 261
248 260 268 271 260 272 281 277 282 273 248 262 270 277 284 286 287 282 256 209 219 222 209 209 215 206 201 200 195 191 190 192 193 194 199 202 206 211 220 226 227 224 221 228 240 247 251 255 258
246 254 272 277 290 271 299 286 280 267 267 261 263 271 272 271 272 273 275 249 237 221 217 210 214 209 204 198 193 188 188 186 183 191 194 199 205 217 223 229 230 219 224 235 238 250 260 263 264
270 270 280 308 307 283 176 277 276 260 261 253 263 263 265 266 265 268 262 252 240 232 224 219 216 215 204 200 194 187 184 189 188 207 198 199 193 210 221 226 227 220 224 231 243 255 262 267 254
252 320 269 285 273 289 235 253 274 210 251 255 246 250 261 265 260 252 238 232 247 257 226 225 217 214 207 205 206 202 207 209 194 191 200 198 205 202 216 220 225 225 229 238 247 247 249 237 189
237 356 313 300 154 245 239 218 273 241 251 242 253 256 261 266 266 264 262 248 224 240 226 222 224 221 217 216 212 210 202 200 201 195 197 197 203 194 209 206 219 222 231 241 238 223 185 168 184
36 27 317 326 224 244 321 236 245 270 265 235 249 268 275 276 271 264 258 253 236 214 227 224 229 231 223 214 207 208 207 204 204 204 199 195 199 196 197 207 221 217 211 208 185 169 174 187 188
289 172 202 245 234 265 329 255 249 228 251 250 261 285 282 275 271 269 273 258 238 221 224 221 231 233 228 214 206 208 214 215 213 211 203 202 202 197 200 205 206 199 188 170 169 176 176 185 192
255 171 207 267 273 267 223 285 304 266 256 260 283 299 302 275 263 277 283 266 251 234 218 220 216 231 234 221 215 217 206 210 212 208 210 204 195 193 194 196 194 185 167 168 172 170 175 175 171
207 186 358 186 257 259 254 245 243 296 285 295 291 293 335 327 300 281 288 267 252 243 229 219 216 227 231 222 211 208 208 209 217 216 210 190 185 185 184 185 182 169 169 171 168 168 160 172 156
150 207 212 228 209 252 300 232 221 231 246 235 305 313 338 331 329 306 287 284 243 233 225 218 214 216 224 223 214 206 208 212 217 218 204 182 177 180 182 183 169 168 166 168 167 155 144 151 132
197 238 190 257 262 234 262 268 241 262 200 298 311 339 339 320 323 325 302 276 261 225 224 217 209 210 220 218 212 203 205 203 211 213 188 184 182 204 187 173 168 167 169 165 158 150 146 142 134